Regional Weather Roundup
Issued by NWS

Home | Current Version | Previous Version | Graphics & Text | Print | Product List | Glossary On
Versions: 1 2 3 4 5 6 7 8 9 10 11 12 13 14 15 16 17 18 19 20 21 22 23 24 25 26 27 28 29 30 31 32 33 34 35 36 37 38 39 40 41 42 43 44 45 46 47 48 49 50
000
ASUS44 KMEG 310110
RWRTN
TENNESSEE HOURLY STATE WEATHER ROUNDUP
NATIONAL WEATHER SERVICE MEMPHIS TN
800 PM CDT THU JUL 30 2015

TNZ002-004-019-021-049-052-054-088>092-310200-
WEST TENNESSEE

CITY           SKY/WX    TMP DP  RH WIND       PRES   REMARKS
MEMPHIS INTL   PTCLDY    84  64  50 N10       30.07R
NWS MEMPHIS      N/A     83 N/A N/A MISG        N/A
JACKSON        CLEAR     80  59  48 NE5       30.07R
DYERSBURG        N/A    N/A N/A N/A MISG        N/A
PARIS          CLEAR     73  63  68 N5        30.09S
LEXINGTON      CLEAR     75  64  69 N3        30.07R
$$

TNZ008-025-027-028-033-062-065-066-310200-
NORTH MIDDLE TENNESSEE

CITY           SKY/WX    TMP DP  RH WIND       PRES   REMARKS
NASHVILLE      PTCLDY    80  61  52 N7        30.06R
CLARKSVILLE    CLEAR     77  62  59 N5        30.07R
SMYRNA         CLEAR     80  62  54 N9        30.06R
CROSSVILLE     CLEAR     75  62  64 N6        30.10R
$$

TNZ061-075-076-078-094-096-097-310200-
SOUTH MIDDLE TENNESSEE

CITY           SKY/WX    TMP DP  RH WIND       PRES   REMARKS
FAYETTEVILLE   CLEAR     79  55  44 N7        30.05R
TULLAHOMA      CLEAR     75  63  64 N5        30.07R
WINCHESTER     CLEAR     79  64  61 N7        30.05R
MCMINNVILLE    CLEAR     75  66  73 N3        30.07R
COLUMBIA       CLEAR     81  64  57 N5        30.05R
SHELBYVILLE    CLEAR     79  64  61 N3        30.07R
$$

TNZ017-018-042-046-047-310200-
NORTHEAST TENNESSEE

CITY           SKY/WX    TMP DP  RH WIND       PRES   REMARKS
TRI CITIES     PTCLDY    79  65  62 N7        30.03R
ELIZABETHTON   CLOUDY    75  70  83 CALM      30.03R
$$

TNZ012-013-036-069-073-074-310200-
CENTRAL EAST TENNESSEE

CITY           SKY/WX    TMP DP  RH WIND       PRES   REMARKS
KNOXVILLE      PTCLDY    81  63  54 N9        30.01R
OAK RIDGE      CLEAR     81  64  56 CALM      30.04R
GATLINBURG     CLOUDY    82  66  57 N6        30.00R
MORRISTOWN     CLEAR     81  66  61 N6        30.04R
$$

TNZ083-085-099-310200-
SOUTHEAST TENNESSEE

CITY           SKY/WX    TMP DP  RH WIND       PRES   REMARKS
CHATTANOOGA    PTCLDY    84  64  50 N13       30.00R
$$

SKY/WX REPORTED AS FAIR MEANS FEW OR NO CLOUDS BELOW
12 THOUSAND FEET.




USA.gov is the U.S. government's official web portal to all federal, state and local government web resources and services.